owner,sensor,date,latitude,longitude,relative_humidity,qcFlag 
LUMCON,ioos:station:LUMCON:102:1,2015-06-01T05:00:00Z,29.1870,-90.6093,75.0,1111122 
LUMCON,ioos:station:LUMCON:102:1,2015-06-01T05:15:00Z,29.1870,-90.6093,75.0,1111122 
LUMCON,ioos:station:LUMCON:102:1,2015-06-01T05:30:00Z,29.1870,-90.6093,74.4,1111122 
LUMCON,ioos:station:LUMCON:102:1,2015-06-01T05:45:00Z,29.1870,-90.6093,74.5,1111122 
LUMCON,ioos:station:LUMCON:102:1,2015-06-01T06:00:00Z,29.1870,-90.6093,75.1,1111122 
LUMCON,ioos:station:LUMCON:102:1,2015-06-01T06:15:00Z,29.1870,-90.6093,74.7,1111122 
LUMCON,ioos:station:LUMCON:102:1,2015-06-01T06:30:00Z,29.1870,-90.6093,76.3,1111122 
LUMCON,ioos:station:LUMCON:102:1,2015-06-01T06:45:00Z,29.1870,-90.6093,77.1,1111122 
LUMCON,ioos:station:LUMCON:102:1,2015-06-01T07:00:00Z,29.1870,-90.6093,76.5,1111122 
LUMCON,ioos:station:LUMCON:102:1,2015-06-01T07:15:00Z,29.1870,-90.6093,76.0,1111122 
LUMCON,ioos:station:LUMCON:102:1,2015-06-01T07:30:00Z,29.1870,-90.6093,75.0,1111122 
LUMCON,ioos:station:LUMCON:102:1,2015-06-01T07:45:00Z,29.1870,-90.6093,78.5,1111122 
LUMCON,ioos:station:LUMCON:102:1,2015-06-01T08:00:00Z,29.1870,-90.6093,75.5,1111122 
LUMCON,ioos:station:LUMCON:102:1,2015-06-01T08:15:00Z,29.1870,-90.6093,74.8,1111122 
LUMCON,ioos:station:LUMCON:102:1,2015-06-01T08:30:00Z,29.1870,-90.6093,75.7,1111122 
LUMCON,ioos:station:LUMCON:102:1,2015-06-01T08:45:00Z,29.1870,-90.6093,73.0,1111122 
LUMCON,ioos:station:LUMCON:102:1,2015-06-01T09:00:00Z,29.1870,-90.6093,77.1,1111122 
LUMCON,ioos:station:LUMCON:102:1,2015-06-01T09:15:00Z,29.1870,-90.6093,77.4,1111122 
LUMCON,ioos:station:LUMCON:102:1,2015-06-01T09:30:00Z,29.1870,-90.6093,76.9,1111122 
LUMCON,ioos:station:LUMCON:102:1,2015-06-01T09:45:00Z,29.1870,-90.6093,77.0,1111122 
LUMCON,ioos:station:LUMCON:102:1,2015-06-01T10:00:00Z,29.1870,-90.6093,75.8,1111122 
LUMCON,ioos:station:LUMCON:102:1,2015-06-01T10:15:00Z,29.1870,-90.6093,76.9,1111122 
LUMCON,ioos:station:LUMCON:102:1,2015-06-01T10:30:00Z,29.1870,-90.6093,79.6,1111122 
LUMCON,ioos:station:LUMCON:102:1,2015-06-01T10:45:00Z,29.1870,-90.6093,80.6,1111122 
LUMCON,ioos:station:LUMCON:102:1,2015-06-01T11:00:00Z,29.1870,-90.6093,79.8,1111122 
LUMCON,ioos:station:LUMCON:102:1,2015-06-01T11:15:00Z,29.1870,-90.6093,77.5,1111122 
LUMCON,ioos:station:LUMCON:102:1,2015-06-01T11:30:00Z,29.1870,-90.6093,77.5,1111122 
LUMCON,ioos:station:LUMCON:102:1,2015-06-01T11:45:00Z,29.1870,-90.6093,79.6,1111122 
LUMCON,ioos:station:LUMCON:102:1,2015-06-01T12:00:00Z,29.1870,-90.6093,77.8,1111122 
LUMCON,ioos:station:LUMCON:102:1,2015-06-01T12:15:00Z,29.1870,-90.6093,76.6,1111122 
LUMCON,ioos:station:LUMCON:102:1,2015-06-01T12:30:00Z,29.1870,-90.6093,77.4,1111122 
LUMCON,ioos:station:LUMCON:102:1,2015-06-01T12:45:00Z,29.1870,-90.6093,76.9,1111122 
LUMCON,ioos:station:LUMCON:102:1,2015-06-01T13:00:00Z,29.1870,-90.6093,74.9,1111122 
LUMCON,ioos:station:LUMCON:102:1,2015-06-01T13:15:00Z,29.1870,-90.6093,76.2,1111122 
LUMCON,ioos:station:LUMCON:102:1,2015-06-01T13:30:00Z,29.1870,-90.6093,69.5,1111122 
LUMCON,ioos:station:LUMCON:102:1,2015-06-01T13:45:00Z,29.1870,-90.6093,67.1,1111122 
LUMCON,ioos:station:LUMCON:102:1,2015-06-01T14:00:00Z,29.1870,-90.6093,70.9,1111122 
LUMCON,ioos:station:LUMCON:102:1,2015-06-01T14:15:00Z,29.1870,-90.6093,70.0,1111122 
LUMCON,ioos:station:LUMCON:102:1,2015-06-01T14:30:00Z,29.1870,-90.6093,70.6,1111122 
LUMCON,ioos:station:LUMCON:102:1,2015-06-01T14:45:00Z,29.1870,-90.6093,67.7,1111122 
LUMCON,ioos:station:LUMCON:102:1,2015-06-01T15:00:00Z,29.1870,-90.6093,66.2,1111122 
LUMCON,ioos:station:LUMCON:102:1,2015-06-01T15:15:00Z,29.1870,-90.6093,65.9,1111122 
LUMCON,ioos:station:LUMCON:102:1,2015-06-01T15:30:00Z,29.1870,-90.6093,68.6,1111122 
LUMCON,ioos:station:LUMCON:102:1,2015-06-01T15:45:00Z,29.1870,-90.6093,68.6,1111122 
LUMCON,ioos:station:LUMCON:102:1,2015-06-01T16:00:00Z,29.1870,-90.6093,68.0,1111122 
LUMCON,ioos:station:LUMCON:102:1,2015-06-01T16:15:00Z,29.1870,-90.6093,66.3,1111122 
LUMCON,ioos:station:LUMCON:102:1,2015-06-01T16:30:00Z,29.1870,-90.6093,66.1,1111122 
LUMCON,ioos:station:LUMCON:102:1,2015-06-01T16:45:00Z,29.1870,-90.6093,66.1,1111122 
LUMCON,ioos:station:LUMCON:102:1,2015-06-01T17:00:00Z,29.1870,-90.6093,67.6,1111122 
LUMCON,ioos:station:LUMCON:102:1,2015-06-01T17:15:00Z,29.1870,-90.6093,65.4,1111122 
LUMCON,ioos:station:LUMCON:102:1,2015-06-01T17:30:00Z,29.1870,-90.6093,65.3,1111122 
LUMCON,ioos:station:LUMCON:102:1,2015-06-01T17:45:00Z,29.1870,-90.6093,63.6,1111122 
LUMCON,ioos:station:LUMCON:102:1,2015-06-01T18:00:00Z,29.1870,-90.6093,62.5,1111122 
LUMCON,ioos:station:LUMCON:102:1,2015-06-01T18:15:00Z,29.1870,-90.6093,63.1,1111122 
LUMCON,ioos:station:LUMCON:102:1,2015-06-01T18:30:00Z,29.1870,-90.6093,63.7,1111122 
LUMCON,ioos:station:LUMCON:102:1,2015-06-01T18:45:00Z,29.1870,-90.6093,61.8,1111122 
LUMCON,ioos:station:LUMCON:102:1,2015-06-01T19:00:00Z,29.1870,-90.6093,62.5,1111122 
LUMCON,ioos:station:LUMCON:102:1,2015-06-01T19:15:00Z,29.1870,-90.6093,60.2,1111122 
LUMCON,ioos:station:LUMCON:102:1,2015-06-01T19:30:00Z,29.1870,-90.6093,58.8,1111122 
LUMCON,ioos:station:LUMCON:102:1,2015-06-01T19:45:00Z,29.1870,-90.6093,61.5,1111122 
LUMCON,ioos:station:LUMCON:102:1,2015-06-01T20:00:00Z,29.1870,-90.6093,61.3,1111122 
LUMCON,ioos:station:LUMCON:102:1,2015-06-01T20:15:00Z,29.1870,-90.6093,64.4,1111122 
LUMCON,ioos:station:LUMCON:102:1,2015-06-01T20:30:00Z,29.1870,-90.6093,65.9,1111122 
LUMCON,ioos:station:LUMCON:102:1,2015-06-01T20:45:00Z,29.1870,-90.6093,63.9,1111122 
LUMCON,ioos:station:LUMCON:102:1,2015-06-01T21:00:00Z,29.1870,-90.6093,64.1,1111122 
LUMCON,ioos:station:LUMCON:102:1,2015-06-01T21:15:00Z,29.1870,-90.6093,67.6,1111122 
LUMCON,ioos:station:LUMCON:102:1,2015-06-01T21:30:00Z,29.1870,-90.6093,65.7,1111122 
LUMCON,ioos:station:LUMCON:102:1,2015-06-01T21:45:00Z,29.1870,-90.6093,63.5,1111122 
LUMCON,ioos:station:LUMCON:102:1,2015-06-01T22:00:00Z,29.1870,-90.6093,64.2,1111122 
LUMCON,ioos:station:LUMCON:102:1,2015-06-01T22:15:00Z,29.1870,-90.6093,65.8,1111122 
LUMCON,ioos:station:LUMCON:102:1,2015-06-01T22:30:00Z,29.1870,-90.6093,64.2,1111122 
LUMCON,ioos:station:LUMCON:102:1,2015-06-01T22:45:00Z,29.1870,-90.6093,62.1,1111122 
LUMCON,ioos:station:LUMCON:102:1,2015-06-01T23:00:00Z,29.1870,-90.6093,62.0,1111122 
LUMCON,ioos:station:LUMCON:102:1,2015-06-01T23:15:00Z,29.1870,-90.6093,62.3,1111122 
LUMCON,ioos:station:LUMCON:102:1,2015-06-01T23:30:00Z,29.1870,-90.6093,61.0,1111122 
LUMCON,ioos:station:LUMCON:102:1,2015-06-01T23:45:00Z,29.1870,-90.6093,64.7,1111122 
LUMCON,ioos:station:LUMCON:102:1,2015-06-02T05:00:00Z,29.1870,-90.6093,68.4,1111122 
LUMCON,ioos:station:LUMCON:102:1,2015-06-02T05:15:00Z,29.1870,-90.6093,69.7,1111122 
LUMCON,ioos:station:LUMCON:102:1,2015-06-02T05:30:00Z,29.1870,-90.6093,72.4,1111122 
LUMCON,ioos:station:LUMCON:102:1,2015-06-02T05:45:00Z,29.1870,-90.6093,72.8,1111122 
LUMCON,ioos:station:LUMCON:102:1,2015-06-02T06:00:00Z,29.1870,-90.6093,73.3,1111122 
LUMCON,ioos:station:LUMCON:102:1,2015-06-02T06:15:00Z,29.1870,-90.6093,75.2,1111122 
LUMCON,ioos:station:LUMCON:102:1,2015-06-02T06:30:00Z,29.1870,-90.6093,67.1,1111122 
LUMCON,ioos:station:LUMCON:102:1,2015-06-02T06:45:00Z,29.1870,-90.6093,66.2,1111122 
LUMCON,ioos:station:LUMCON:102:1,2015-06-02T07:00:00Z,29.1870,-90.6093,67.7,1111122 
LUMCON,ioos:station:LUMCON:102:1,2015-06-02T07:15:00Z,29.1870,-90.6093,72.3,1111122 
LUMCON,ioos:station:LUMCON:102:1,2015-06-02T07:30:00Z,29.1870,-90.6093,71.4,1111122 
LUMCON,ioos:station:LUMCON:102:1,2015-06-02T07:45:00Z,29.1870,-90.6093,71.9,1111122 
LUMCON,ioos:station:LUMCON:102:1,2015-06-02T08:00:00Z,29.1870,-90.6093,67.5,1111122 
LUMCON,ioos:station:LUMCON:102:1,2015-06-02T08:15:00Z,29.1870,-90.6093,71.1,1111122 
LUMCON,ioos:station:LUMCON:102:1,2015-06-02T08:30:00Z,29.1870,-90.6093,71.1,1111122 
LUMCON,ioos:station:LUMCON:102:1,2015-06-02T08:45:00Z,29.1870,-90.6093,70.3,1111122 
LUMCON,ioos:station:LUMCON:102:1,2015-06-02T09:00:00Z,29.1870,-90.6093,70.4,1111122 
LUMCON,ioos:station:LUMCON:102:1,2015-06-02T09:15:00Z,29.1870,-90.6093,68.1,1111122 
LUMCON,ioos:station:LUMCON:102:1,2015-06-02T09:30:00Z,29.1870,-90.6093,67.1,1111122 
LUMCON,ioos:station:LUMCON:102:1,2015-06-02T09:45:00Z,29.1870,-90.6093,70.5,1111122 
LUMCON,ioos:station:LUMCON:102:1,2015-06-02T10:00:00Z,29.1870,-90.6093,69.4,1111122 
LUMCON,ioos:station:LUMCON:102:1,2015-06-02T10:15:00Z,29.1870,-90.6093,69.3,1111122 
LUMCON,ioos:station:LUMCON:102:1,2015-06-02T10:30:00Z,29.1870,-90.6093,68.0,1111122 
LUMCON,ioos:station:LUMCON:102:1,2015-06-02T10:45:00Z,29.1870,-90.6093,67.4,1111122 
LUMCON,ioos:station:LUMCON:102:1,2015-06-02T11:00:00Z,29.1870,-90.6093,70.2,1111122 
LUMCON,ioos:station:LUMCON:102:1,2015-06-02T11:15:00Z,29.1870,-90.6093,69.8,1111122 
LUMCON,ioos:station:LUMCON:102:1,2015-06-02T11:30:00Z,29.1870,-90.6093,70.5,1111122 
LUMCON,ioos:station:LUMCON:102:1,2015-06-02T11:45:00Z,29.1870,-90.6093,70.3,1111122 
LUMCON,ioos:station:LUMCON:102:1,2015-06-02T12:00:00Z,29.1870,-90.6093,69.0,1111122 
LUMCON,ioos:station:LUMCON:102:1,2015-06-02T12:15:00Z,29.1870,-90.6093,69.3,1111122 
LUMCON,ioos:station:LUMCON:102:1,2015-06-02T12:30:00Z,29.1870,-90.6093,69.1,1111122 
LUMCON,ioos:station:LUMCON:102:1,2015-06-02T12:45:00Z,29.1870,-90.6093,68.6,1111122 
LUMCON,ioos:station:LUMCON:102:1,2015-06-02T13:00:00Z,29.1870,-90.6093,68.3,1111122 
LUMCON,ioos:station:LUMCON:102:1,2015-06-02T13:15:00Z,29.1870,-90.6093,68.6,1111122 
LUMCON,ioos:station:LUMCON:102:1,2015-06-02T13:30:00Z,29.1870,-90.6093,69.9,1111122 
LUMCON,ioos:station:LUMCON:102:1,2015-06-02T13:45:00Z,29.1870,-90.6093,69.2,1111122 
LUMCON,ioos:station:LUMCON:102:1,2015-06-02T14:00:00Z,29.1870,-90.6093,65.3,1111122 
LUMCON,ioos:station:LUMCON:102:1,2015-06-02T14:15:00Z,29.1870,-90.6093,63.3,1111122 
LUMCON,ioos:station:LUMCON:102:1,2015-06-02T14:30:00Z,29.1870,-90.6093,63.6,1111122 
LUMCON,ioos:station:LUMCON:102:1,2015-06-02T14:45:00Z,29.1870,-90.6093,64.8,1111122 
LUMCON,ioos:station:LUMCON:102:1,2015-06-02T15:00:00Z,29.1870,-90.6093,61.7,1111122 
LUMCON,ioos:station:LUMCON:102:1,2015-06-02T15:15:00Z,29.1870,-90.6093,60.7,1111122 
LUMCON,ioos:station:LUMCON:102:1,2015-06-02T15:30:00Z,29.1870,-90.6093,54.5,1111122 
LUMCON,ioos:station:LUMCON:102:1,2015-06-02T15:45:00Z,29.1870,-90.6093,56.3,1111122 
LUMCON,ioos:station:LUMCON:102:1,2015-06-02T16:00:00Z,29.1870,-90.6093,52.6,1111122 
LUMCON,ioos:station:LUMCON:102:1,2015-06-02T16:15:00Z,29.1870,-90.6093,54.8,1111122 
LUMCON,ioos:station:LUMCON:102:1,2015-06-02T16:30:00Z,29.1870,-90.6093,55.3,1111122 
LUMCON,ioos:station:LUMCON:102:1,2015-06-02T16:45:00Z,29.1870,-90.6093,56.0,1111122 
LUMCON,ioos:station:LUMCON:102:1,2015-06-02T17:00:00Z,29.1870,-90.6093,55.2,1111122 
LUMCON,ioos:station:LUMCON:102:1,2015-06-02T17:15:00Z,29.1870,-90.6093,55.1,1111122 
LUMCON,ioos:station:LUMCON:102:1,2015-06-02T17:30:00Z,29.1870,-90.6093,53.4,1111122 
LUMCON,ioos:station:LUMCON:102:1,2015-06-02T17:45:00Z,29.1870,-90.6093,52.4,1111122 
LUMCON,ioos:station:LUMCON:102:1,2015-06-02T18:00:00Z,29.1870,-90.6093,51.9,1111122 
LUMCON,ioos:station:LUMCON:102:1,2015-06-02T18:15:00Z,29.1870,-90.6093,51.2,1111122 
LUMCON,ioos:station:LUMCON:102:1,2015-06-02T18:30:00Z,29.1870,-90.6093,49.3,1111122 
LUMCON,ioos:station:LUMCON:102:1,2015-06-02T18:45:00Z,29.1870,-90.6093,48.4,1111122 
LUMCON,ioos:station:LUMCON:102:1,2015-06-02T19:00:00Z,29.1870,-90.6093,50.3,1111122 
LUMCON,ioos:station:LUMCON:102:1,2015-06-02T19:15:00Z,29.1870,-90.6093,53.5,1111122 
LUMCON,ioos:station:LUMCON:102:1,2015-06-02T19:30:00Z,29.1870,-90.6093,49.6,1111122 
LUMCON,ioos:station:LUMCON:102:1,2015-06-02T19:45:00Z,29.1870,-90.6093,51.4,1111122 
LUMCON,ioos:station:LUMCON:102:1,2015-06-02T20:00:00Z,29.1870,-90.6093,53.9,1111122 
LUMCON,ioos:station:LUMCON:102:1,2015-06-02T20:15:00Z,29.1870,-90.6093,54.0,1111122 
LUMCON,ioos:station:LUMCON:102:1,2015-06-02T20:30:00Z,29.1870,-90.6093,54.2,1111122 
LUMCON,ioos:station:LUMCON:102:1,2015-06-02T20:45:00Z,29.1870,-90.6093,55.3,1111122 
LUMCON,ioos:station:LUMCON:102:1,2015-06-02T21:00:00Z,29.1870,-90.6093,59.5,1111122 
LUMCON,ioos:station:LUMCON:102:1,2015-06-02T21:15:00Z,29.1870,-90.6093,56.2,1111122 
LUMCON,ioos:station:LUMCON:102:1,2015-06-02T21:30:00Z,29.1870,-90.6093,58.4,1111122 
LUMCON,ioos:station:LUMCON:102:1,2015-06-02T21:45:00Z,29.1870,-90.6093,56.5,1111122 
LUMCON,ioos:station:LUMCON:102:1,2015-06-02T22:00:00Z,29.1870,-90.6093,58.0,1111122 
LUMCON,ioos:station:LUMCON:102:1,2015-06-02T22:15:00Z,29.1870,-90.6093,54.8,1111122 
LUMCON,ioos:station:LUMCON:102:1,2015-06-02T22:30:00Z,29.1870,-90.6093,56.0,1111122 
LUMCON,ioos:station:LUMCON:102:1,2015-06-02T22:45:00Z,29.1870,-90.6093,56.1,1111122 
LUMCON,ioos:station:LUMCON:102:1,2015-06-02T23:00:00Z,29.1870,-90.6093,54.7,1111122 
LUMCON,ioos:station:LUMCON:102:1,2015-06-02T23:15:00Z,29.1870,-90.6093,54.9,1111122 
LUMCON,ioos:station:LUMCON:102:1,2015-06-02T23:30:00Z,29.1870,-90.6093,54.5,1111122 
LUMCON,ioos:station:LUMCON:102:1,2015-06-02T23:45:00Z,29.1870,-90.6093,54.8,1111122 
LUMCON,ioos:station:LUMCON:102:1,2015-06-03T05:00:00Z,29.1870,-90.6093,56.9,1111122 
LUMCON,ioos:station:LUMCON:102:1,2015-06-03T05:15:00Z,29.1870,-90.6093,58.8,1111122 
LUMCON,ioos:station:LUMCON:102:1,2015-06-03T05:30:00Z,29.1870,-90.6093,57.6,1111122 
LUMCON,ioos:station:LUMCON:102:1,2015-06-03T05:45:00Z,29.1870,-90.6093,58.5,1111122 
LUMCON,ioos:station:LUMCON:102:1,2015-06-03T06:00:00Z,29.1870,-90.6093,58.4,1111122 
LUMCON,ioos:station:LUMCON:102:1,2015-06-03T06:15:00Z,29.1870,-90.6093,58.9,1111122 
LUMCON,ioos:station:LUMCON:102:1,2015-06-03T06:30:00Z,29.1870,-90.6093,57.7,1111122 
LUMCON,ioos:station:LUMCON:102:1,2015-06-03T06:45:00Z,29.1870,-90.6093,61.0,1111122 
LUMCON,ioos:station:LUMCON:102:1,2015-06-03T07:00:00Z,29.1870,-90.6093,60.0,1111122 
LUMCON,ioos:station:LUMCON:102:1,2015-06-03T07:15:00Z,29.1870,-90.6093,61.0,1111122 
LUMCON,ioos:station:LUMCON:102:1,2015-06-03T07:30:00Z,29.1870,-90.6093,58.9,1111122 
LUMCON,ioos:station:LUMCON:102:1,2015-06-03T07:45:00Z,29.1870,-90.6093,59.6,1111122 
LUMCON,ioos:station:LUMCON:102:1,2015-06-03T08:00:00Z,29.1870,-90.6093,59.9,1111122 
LUMCON,ioos:station:LUMCON:102:1,2015-06-03T08:15:00Z,29.1870,-90.6093,60.5,1111122 
LUMCON,ioos:station:LUMCON:102:1,2015-06-03T08:30:00Z,29.1870,-90.6093,60.3,1111122 
LUMCON,ioos:station:LUMCON:102:1,2015-06-03T08:45:00Z,29.1870,-90.6093,64.3,1111122 
LUMCON,ioos:station:LUMCON:102:1,2015-06-03T09:00:00Z,29.1870,-90.6093,64.3,1111122 
LUMCON,ioos:station:LUMCON:102:1,2015-06-03T09:15:00Z,29.1870,-90.6093,65.5,1111122 
LUMCON,ioos:station:LUMCON:102:1,2015-06-03T09:30:00Z,29.1870,-90.6093,66.2,1111122 
LUMCON,ioos:station:LUMCON:102:1,2015-06-03T09:45:00Z,29.1870,-90.6093,63.7,1111122 
LUMCON,ioos:station:LUMCON:102:1,2015-06-03T10:00:00Z,29.1870,-90.6093,63.9,1111122 
LUMCON,ioos:station:LUMCON:102:1,2015-06-03T10:15:00Z,29.1870,-90.6093,59.1,1111122 
LUMCON,ioos:station:LUMCON:102:1,2015-06-03T10:30:00Z,29.1870,-90.6093,59.6,1111122 
LUMCON,ioos:station:LUMCON:102:1,2015-06-03T10:45:00Z,29.1870,-90.6093,56.9,1111122 
LUMCON,ioos:station:LUMCON:102:1,2015-06-03T11:00:00Z,29.1870,-90.6093,55.3,1111122 
LUMCON,ioos:station:LUMCON:102:1,2015-06-03T11:15:00Z,29.1870,-90.6093,54.3,1111122 
LUMCON,ioos:station:LUMCON:102:1,2015-06-03T11:30:00Z,29.1870,-90.6093,65.3,1111122 
LUMCON,ioos:station:LUMCON:102:1,2015-06-03T11:45:00Z,29.1870,-90.6093,70.2,1111122 
LUMCON,ioos:station:LUMCON:102:1,2015-06-03T12:00:00Z,29.1870,-90.6093,68.0,1111122 
LUMCON,ioos:station:LUMCON:102:1,2015-06-03T12:15:00Z,29.1870,-90.6093,69.2,1111122 
LUMCON,ioos:station:LUMCON:102:1,2015-06-03T12:30:00Z,29.1870,-90.6093,67.6,1111122 
LUMCON,ioos:station:LUMCON:102:1,2015-06-03T12:45:00Z,29.1870,-90.6093,64.7,1111122 
LUMCON,ioos:station:LUMCON:102:1,2015-06-03T13:00:00Z,29.1870,-90.6093,65.3,1111122 
LUMCON,ioos:station:LUMCON:102:1,2015-06-03T13:15:00Z,29.1870,-90.6093,65.6,1111122 
LUMCON,ioos:station:LUMCON:102:1,2015-06-03T13:30:00Z,29.1870,-90.6093,62.6,1111122 
LUMCON,ioos:station:LUMCON:102:1,2015-06-03T13:45:00Z,29.1870,-90.6093,62.6,1111122 
LUMCON,ioos:station:LUMCON:102:1,2015-06-03T14:00:00Z,29.1870,-90.6093,61.9,1111122 
LUMCON,ioos:station:LUMCON:102:1,2015-06-03T14:15:00Z,29.1870,-90.6093,62.6,1111122 
LUMCON,ioos:station:LUMCON:102:1,2015-06-03T14:30:00Z,29.1870,-90.6093,62.8,1111122 
LUMCON,ioos:station:LUMCON:102:1,2015-06-03T14:45:00Z,29.1870,-90.6093,62.7,1111122 
LUMCON,ioos:station:LUMCON:102:1,2015-06-03T15:00:00Z,29.1870,-90.6093,60.9,1111122 
LUMCON,ioos:station:LUMCON:102:1,2015-06-05T16:45:00Z,29.1870,-90.6093,61.4,1111122 
LUMCON,ioos:station:LUMCON:102:1,2015-06-05T17:00:00Z,29.1870,-90.6093,60.2,1111122 
LUMCON,ioos:station:LUMCON:102:1,2015-06-05T17:15:00Z,29.1870,-90.6093,60.7,1111122 
LUMCON,ioos:station:LUMCON:102:1,2015-06-05T17:30:00Z,29.1870,-90.6093,60.3,1111122 
LUMCON,ioos:station:LUMCON:102:1,2015-06-05T17:45:00Z,29.1870,-90.6093,60.2,1111122 
LUMCON,ioos:station:LUMCON:102:1,2015-06-05T18:00:00Z,29.1870,-90.6093,59.8,1111122 
LUMCON,ioos:station:LUMCON:102:1,2015-06-05T18:15:00Z,29.1870,-90.6093,61.9,1111122 
LUMCON,ioos:station:LUMCON:102:1,2015-06-05T18:30:00Z,29.1870,-90.6093,58.5,1111122 
LUMCON,ioos:station:LUMCON:102:1,2015-06-05T18:45:00Z,29.1870,-90.6093,58.3,1111122 
LUMCON,ioos:station:LUMCON:102:1,2015-06-05T19:00:00Z,29.1870,-90.6093,59.0,1111122 
LUMCON,ioos:station:LUMCON:102:1,2015-06-05T19:15:00Z,29.1870,-90.6093,57.9,1111122 
LUMCON,ioos:station:LUMCON:102:1,2015-06-05T19:30:00Z,29.1870,-90.6093,58.0,1111122 
LUMCON,ioos:station:LUMCON:102:1,2015-06-05T19:45:00Z,29.1870,-90.6093,56.2,1111122 
LUMCON,ioos:station:LUMCON:102:1,2015-06-05T20:00:00Z,29.1870,-90.6093,57.1,1111122 
LUMCON,ioos:station:LUMCON:102:1,2015-06-05T20:15:00Z,29.1870,-90.6093,56.8,1111122 
LUMCON,ioos:station:LUMCON:102:1,2015-06-05T20:30:00Z,29.1870,-90.6093,59.3,1111122 
LUMCON,ioos:station:LUMCON:102:1,2015-06-05T20:45:00Z,29.1870,-90.6093,56.9,1111122 
LUMCON,ioos:station:LUMCON:102:1,2015-06-05T21:00:00Z,29.1870,-90.6093,55.7,1111122 
LUMCON,ioos:station:LUMCON:102:1,2015-06-05T21:15:00Z,29.1870,-90.6093,56.0,1111122 
LUMCON,ioos:station:LUMCON:102:1,2015-06-05T21:30:00Z,29.1870,-90.6093,58.5,1111122 
LUMCON,ioos:station:LUMCON:102:1,2015-06-05T21:45:00Z,29.1870,-90.6093,55.3,1111122 
LUMCON,ioos:station:LUMCON:102:1,2015-06-05T22:00:00Z,29.1870,-90.6093,55.3,1111122 
LUMCON,ioos:station:LUMCON:102:1,2015-06-05T22:15:00Z,29.1870,-90.6093,54.3,1111122 
LUMCON,ioos:station:LUMCON:102:1,2015-06-05T22:30:00Z,29.1870,-90.6093,51.1,1111122 
LUMCON,ioos:station:LUMCON:102:1,2015-06-05T22:45:00Z,29.1870,-90.6093,50.9,1111122 
LUMCON,ioos:station:LUMCON:102:1,2015-06-05T23:00:00Z,29.1870,-90.6093,52.3,1111122 
LUMCON,ioos:station:LUMCON:102:1,2015-06-05T23:15:00Z,29.1870,-90.6093,52.9,1111122 
LUMCON,ioos:station:LUMCON:102:1,2015-06-05T23:30:00Z,29.1870,-90.6093,51.3,1111122 
LUMCON,ioos:station:LUMCON:102:1,2015-06-05T23:45:00Z,29.1870,-90.6093,52.6,1111122 
LUMCON,ioos:station:LUMCON:102:1,2015-06-06T05:00:00Z,29.1870,-90.6093,59.9,1111122 
LUMCON,ioos:station:LUMCON:102:1,2015-06-06T05:15:00Z,29.1870,-90.6093,60.2,1111122 
LUMCON,ioos:station:LUMCON:102:1,2015-06-06T05:30:00Z,29.1870,-90.6093,60.3,1111122 
LUMCON,ioos:station:LUMCON:102:1,2015-06-06T05:45:00Z,29.1870,-90.6093,59.0,1111122 
LUMCON,ioos:station:LUMCON:102:1,2015-06-06T06:00:00Z,29.1870,-90.6093,59.3,1111122 
LUMCON,ioos:station:LUMCON:102:1,2015-06-06T06:15:00Z,29.1870,-90.6093,59.6,1111122 
LUMCON,ioos:station:LUMCON:102:1,2015-06-06T06:30:00Z,29.1870,-90.6093,60.7,1111122 
LUMCON,ioos:station:LUMCON:102:1,2015-06-06T06:45:00Z,29.1870,-90.6093,59.6,1111122 
LUMCON,ioos:station:LUMCON:102:1,2015-06-06T07:00:00Z,29.1870,-90.6093,59.1,1111122 
LUMCON,ioos:station:LUMCON:102:1,2015-06-06T07:15:00Z,29.1870,-90.6093,58.8,1111122 
LUMCON,ioos:station:LUMCON:102:1,2015-06-06T07:30:00Z,29.1870,-90.6093,59.1,1111122 
LUMCON,ioos:station:LUMCON:102:1,2015-06-06T07:45:00Z,29.1870,-90.6093,58.4,1111122 
LUMCON,ioos:station:LUMCON:102:1,2015-06-06T08:00:00Z,29.1870,-90.6093,63.4,1111122 
LUMCON,ioos:station:LUMCON:102:1,2015-06-06T08:15:00Z,29.1870,-90.6093,62.2,1111122 
LUMCON,ioos:station:LUMCON:102:1,2015-06-06T08:30:00Z,29.1870,-90.6093,63.4,1111122 
LUMCON,ioos:station:LUMCON:102:1,2015-06-06T08:45:00Z,29.1870,-90.6093,62.2,1111122 
LUMCON,ioos:station:LUMCON:102:1,2015-06-06T09:00:00Z,29.1870,-90.6093,62.3,1111122 
LUMCON,ioos:station:LUMCON:102:1,2015-06-06T09:15:00Z,29.1870,-90.6093,63.8,1111122 
LUMCON,ioos:station:LUMCON:102:1,2015-06-06T09:30:00Z,29.1870,-90.6093,63.9,1111122 
LUMCON,ioos:station:LUMCON:102:1,2015-06-06T09:45:00Z,29.1870,-90.6093,65.8,1111122 
LUMCON,ioos:station:LUMCON:102:1,2015-06-06T10:00:00Z,29.1870,-90.6093,67.2,1111122 
LUMCON,ioos:station:LUMCON:102:1,2015-06-06T10:15:00Z,29.1870,-90.6093,69.0,1111122 
LUMCON,ioos:station:LUMCON:102:1,2015-06-06T10:30:00Z,29.1870,-90.6093,68.7,1111122 
LUMCON,ioos:station:LUMCON:102:1,2015-06-06T10:45:00Z,29.1870,-90.6093,74.1,1111122 
LUMCON,ioos:station:LUMCON:102:1,2015-06-06T11:00:00Z,29.1870,-90.6093,71.0,1111122 
LUMCON,ioos:station:LUMCON:102:1,2015-06-06T11:15:00Z,29.1870,-90.6093,72.3,1111122 
LUMCON,ioos:station:LUMCON:102:1,2015-06-06T11:30:00Z,29.1870,-90.6093,72.6,1111122 
LUMCON,ioos:station:LUMCON:102:1,2015-06-06T11:45:00Z,29.1870,-90.6093,70.4,1111122 
LUMCON,ioos:station:LUMCON:102:1,2015-06-06T12:00:00Z,29.1870,-90.6093,70.1,1111122 
LUMCON,ioos:station:LUMCON:102:1,2015-06-06T12:15:00Z,29.1870,-90.6093,68.5,1111122 
LUMCON,ioos:station:LUMCON:102:1,2015-06-06T12:30:00Z,29.1870,-90.6093,68.1,1111122 
LUMCON,ioos:station:LUMCON:102:1,2015-06-06T12:45:00Z,29.1870,-90.6093,68.3,1111122 
LUMCON,ioos:station:LUMCON:102:1,2015-06-06T13:00:00Z,29.1870,-90.6093,66.6,1111122 
LUMCON,ioos:station:LUMCON:102:1,2015-06-06T13:15:00Z,29.1870,-90.6093,67.1,1111122 
LUMCON,ioos:station:LUMCON:102:1,2015-06-06T13:30:00Z,29.1870,-90.6093,67.1,1111122 
LUMCON,ioos:station:LUMCON:102:1,2015-06-06T13:45:00Z,29.1870,-90.6093,63.8,1111122 
LUMCON,ioos:station:LUMCON:102:1,2015-06-06T14:00:00Z,29.1870,-90.6093,61.7,1111122 
LUMCON,ioos:station:LUMCON:102:1,2015-06-06T14:15:00Z,29.1870,-90.6093,60.7,1111122 
LUMCON,ioos:station:LUMCON:102:1,2015-06-06T14:30:00Z,29.1870,-90.6093,63.5,1111122 
LUMCON,ioos:station:LUMCON:102:1,2015-06-06T14:45:00Z,29.1870,-90.6093,62.3,1111122 
LUMCON,ioos:station:LUMCON:102:1,2015-06-06T15:00:00Z,29.1870,-90.6093,61.7,1111122 
LUMCON,ioos:station:LUMCON:102:1,2015-06-06T15:15:00Z,29.1870,-90.6093,62.0,1111122 
LUMCON,ioos:station:LUMCON:102:1,2015-06-06T15:30:00Z,29.1870,-90.6093,62.8,1111122 
LUMCON,ioos:station:LUMCON:102:1,2015-06-06T15:45:00Z,29.1870,-90.6093,61.9,1111122 
LUMCON,ioos:station:LUMCON:102:1,2015-06-06T16:00:00Z,29.1870,-90.6093,65.5,1111122 
LUMCON,ioos:station:LUMCON:102:1,2015-06-06T16:15:00Z,29.1870,-90.6093,66.3,1111122 
LUMCON,ioos:station:LUMCON:102:1,2015-06-06T16:30:00Z,29.1870,-90.6093,64.1,1111122 
LUMCON,ioos:station:LUMCON:102:1,2015-06-06T16:45:00Z,29.1870,-90.6093,63.2,1111122 
LUMCON,ioos:station:LUMCON:102:1,2015-06-06T17:00:00Z,29.1870,-90.6093,63.4,1111122 
LUMCON,ioos:station:LUMCON:102:1,2015-06-06T17:15:00Z,29.1870,-90.6093,62.2,1111122 
LUMCON,ioos:station:LUMCON:102:1,2015-06-06T17:30:00Z,29.1870,-90.6093,61.4,1111122 
LUMCON,ioos:station:LUMCON:102:1,2015-06-06T17:45:00Z,29.1870,-90.6093,57.6,1111122 
LUMCON,ioos:station:LUMCON:102:1,2015-06-06T18:00:00Z,29.1870,-90.6093,56.8,1111122 
LUMCON,ioos:station:LUMCON:102:1,2015-06-06T18:15:00Z,29.1870,-90.6093,57.0,1111122 
LUMCON,ioos:station:LUMCON:102:1,2015-06-06T18:30:00Z,29.1870,-90.6093,55.5,1111122 
LUMCON,ioos:station:LUMCON:102:1,2015-06-06T18:45:00Z,29.1870,-90.6093,53.2,1111122 
LUMCON,ioos:station:LUMCON:102:1,2015-06-06T19:00:00Z,29.1870,-90.6093,53.8,1111122 
LUMCON,ioos:station:LUMCON:102:1,2015-06-06T19:15:00Z,29.1870,-90.6093,54.6,1111122 
LUMCON,ioos:station:LUMCON:102:1,2015-06-06T19:30:00Z,29.1870,-90.6093,52.6,1111122 